ANIK F1R

Last updated on Wed Oct 29 2025 00:02:46 GMT+0000 (Coordinated Universal Time)

1 28868U 05036A 25301.59356326 -.00000063 00000+0 00000+0 0 9994 2 28868 3.7155 79.4388 0001837 108.8709 315.2930 1.00272377 44130
UTC large
Height (km)
Speed (km/s)
/
Latitude / Longitude
Inclination (degrees)
Orbital Period (minutes)
Azimuth
Elevation
Range (km)
Doppler Factor

Next 0 passes for location: London (51.5072 / 0.1276)

Sorry there are no passes over London.